Regional Weather Roundup
Issued by NWS

Home | Current Version | Previous Version | Text Only | Print | Product List | Glossary Off
Versions: 1 2 3 4 5 6 7 8 9 10 11 12 13 14 15 16 17 18 19 20 21 22 23 24 25 26 27

000
ASUS45 KSLC 260310
RWRUT

UTAH REGIONAL WEATHER ROUNDUP
NATIONAL WEATHER SERVICE SALT LAKE CITY UT
900 PM MDT SUN JUN 25 2017

UTZ001>011-023>025-260400-

NORTHERN UTAH

CITY           SKY/WX    TMP DP  RH WIND       PRES   REMARKS
BRIGHAM CITY   CLEAR     84  43  23 CALM      30.10S
HILL AFB       CLEAR     83  43  24 N6        30.13S
LOGAN          CLEAR     79  52  38 N5        30.11F
OGDEN          CLEAR     83  42  23 N7        30.10S
SALT LAKE CITY PTCLDY    85  44  23 N10       30.08R
TOOELE VALLEY  CLEAR     77  52  41 SE6       30.10S
WENDOVER         N/A     86  34  15 E6        30.09S
HEBER CITY     CLEAR     70  45  40 CALM      30.18S
WEST JORDAN    CLEAR     82  52  35 W7        30.12S

$$

UTZ011>015-024>027-260400-

CENTRAL/NORTHEAST UTAH

CITY           SKY/WX    TMP DP  RH WIND       PRES   REMARKS
PROVO AIRPORT  CLEAR     78  60  53 NW8       30.10R
MOAB/CANYONLAN PTCLDY    89   8   5 SE7       30.02R
DELTA          PTCLDY    82  23  11 CALM      30.10R
PRICE          CLEAR     82  20  10 N12       30.19R
RICHFIELD      CLEAR     73  43  33 CALM      30.16R
VERNAL         CLOUDY    78  39  24 N6        30.16R

$$

UTZ013>016-019>022-027-260400-

SOUTHERN UTAH

CITY           SKY/WX    TMP DP  RH WIND       PRES   REMARKS
BRYCE CANYON   MOCLDY    67  33  28 W3        30.35S
CEDAR CITY     PTCLDY    81  31  16 NW7       30.16R
MILFORD        PTCLDY    84  23  10 NE10      30.09S
ST GEORGE      CLEAR     98  33  10 NE7       29.89R HX  92
HANKSVILLE     PTCLDY    90  21   8 NE10      30.04R
KANAB          CLEAR     84  34  16 NW6       30.13R
BLANDING       PTCLDY    73  29  19 N10       30.22R

$$

REGIONAL REPORTS     COLORADO/ARIZONA

CITY           SKY/WX    TMP DP  RH WIND       PRES   REMARKS
CRAIG, CO      CLEAR     66  42  41 SE3       30.26S
GRAND JUNCTION CLEAR     86  26  11 NE10      30.07R
RIFLE, CO      CLEAR     78  27  15 SW5       30.18R
MONTROSE, CO   CLEAR     77  30  17 W6        30.16R
CORTEZ, CO     CLOUDY    71  33  24 MISG      30.15S
COLORADO CITY    N/A     88  32  13 CALM      30.12R
PAGE, AZ       NOT AVBL
GRAND CANYON   MOCLDY    68  39  34 CALM      30.30S
KINGMAN, AZ    PTCLDY    97  31   9 SW10      29.96R HX  91
FLAGSTAFF, AZ  CLOUDY    65  50  58 CALM      30.33F

$$

REGIONAL REPORTS    NEVADA/IDAHO/WYOMING

CITY           SKY/WX    TMP DP  RH WIND       PRES   REMARKS
LAS VEGAS, NV  PTCLDY   107   7   2 SW12      29.81R HX  98
ELY, NY        MOCLDY    83  29  14 W8        30.23R
ELKO, NV       PTCLDY    85  37  18 S6        30.10R
POCATELLO, ID  CLEAR     77  46  33 E7        30.14F
BURLEY, ID     CLEAR     79  40  24 E7        30.07S
FORT BRIDGER,    N/A     73  29  19 N3        30.36R
EVANSTON, WY   CLEAR     73  32  22 N8        30.33S
ROCK SPRINGS,  CLEAR     71  25  17 NE3       30.31S
KEMMERER, WY     N/A     66  32  28 W7        30.36S

$$




USA.gov is the U.S. government's official web portal to all federal, state and local government web resources and services.